Flag for U.S.A. Weather past 2 weeks in Newport News, Virginia, U.S.A.

Now
71 °F

Clear.


Feels Like: 68 °F
Forecast: 70 / 90 °F
Wind: 5 mph from West

Location: Newport News / Williamsburg International Airport

Current Time: Sep 3, 2015 at 6:57:20 AM

Latest Report: Sep 3, 2015 at 5:54 AM


Visibility: 8 mi

Pressure: 29.91 "Hg

Humidity: 90%

Dew point: 68 °F

Location of Newport NewsLocation

Historic Weather in Newport News — Graph

°F

Newport News temperature yesterday

Maximum temperature yesterday: 93 °F (at 1:54 PM)
Minimum temperature yesterday: 71 °F (at 12:54 AM)
Average temperature yesterday: 78 °F

Past Weeks' High & Low Weather Summary

 TemperatureHumidityPressure
High93 °F (Sep 2, 1:54 PM)97% (Aug 21, 4:54 AM)30.24 "Hg (Aug 21, 4:54 AM)
Low59 °F (Aug 29, 4:54 AM)38% (Aug 28, 3:54 PM)29.85 "Hg (Aug 24, 4:54 PM)
Average77 °F70%30.03 "Hg
* Reported Aug 19 4:54 AM — Sep 3 4:54 AM, Newport News, Weather by CustomWeather, © 2015

Note: Actual official high and low records may vary slightly from our data, if they occured in-between our weather recording intervals... More about our weather records

Advertising

Newport News weather history for previous 24 hours

 ConditionsComfort  
Time TempWeatherWind HumidityBarometerVisibility
4:54 AM
Thu, Sep 3
71 °FFog.5 mph96%29.91 "Hg5 mi
3:54 AM72 °FFog.5 mph97%29.92 "Hg5 mi
2:54 AM73 °FClear.3 mph90%29.93 "Hg8 mi
1:54 AM74 °FClear.6 mph88%29.94 "Hg9 mi
12:54 AM73 °FPassing clouds.No wind90%29.95 "Hg9 mi
11:54 PM
Wed, Sep 2
73 °FClear.5 mph90%29.95 "Hg9 mi
10:54 PM73 °FClear.5 mph90%29.95 "Hg8 mi
9:54 PM74 °FClear.6 mph91%29.96 "Hg10 mi
8:54 PM73 °FClear.No wind88%29.94 "Hg10 mi
7:54 PM73 °FPassing clouds.3 mph90%29.95 "Hg10 mi
6:54 PM74 °FScattered clouds.5 mph91%29.94 "Hg8 mi
6:04 PM73 °FThundershowers. Fog.8 mph90%29.94 "Hg6 mi
4:54 PM76 °FStrong thunderstorms. Overcast.22 mph82%29.98 "Hg1 mi
3:54 PM89 °FMostly cloudy.7 mph53%29.95 "Hg10 mi
2:54 PM92 °FSunny.No wind43%29.96 "Hg10 mi
1:54 PM93 °FPassing clouds.7 mph41%29.99 "Hg10 mi
12:54 PM92 °FSunny.7 mph46%30.00 "Hg10 mi
11:54 AM90 °FSunny.6 mph50%30.02 "Hg10 mi
10:54 AM88 °FSunny.8 mph52%30.03 "Hg10 mi
9:54 AM83 °FSunny.7 mph63%30.04 "Hg10 mi
8:54 AM80 °FSunny.6 mph74%30.05 "Hg10 mi
7:54 AM75 °FSunny.5 mph90%30.06 "Hg9 mi
6:54 AM72 °FClear.3 mph93%30.04 "Hg10 mi
Weather by CustomWeather, © 2015

See weather overviewHow to use our weather pages